QPF
0.16 0.27 0.24 0.15 0.17 0.15 0.09 0.05 0.05 0.06 0.04 0.01 0.01 0.03 0.03 0.04 0.04 0.06 0.08 0.11 0.15 0.19 0.18 0.16 0.15 0.14 0.13 0.12 0.10 0.10 0.11 0.10 0.10 0.11 0.12 0.10 0.09 0.09 0.07 0.05 0.06 0.07 0.08
0.12 0.17 0.19 0.13 0.11 0.09 0.06 0.03 0.03 0.04 0.05 0.04 0.03 0.03 0.02 0.02 0.03 0.04 0.05 0.05 0.08 0.13 0.17 0.15 0.14 0.14 0.13 0.14 0.13 0.12 0.12 0.13 0.11 0.12 0.12 0.09 0.07 0.08 0.06 0.07 0.10 0.12 0.10
0.08 0.07 0.10 0.08 0.07 0.07 0.05 0.04 0.04 0.04 0.04 0.04 0.04 0.04 0.03 0.03 0.03 0.04 0.04 0.04 0.04 0.08 0.14 0.16 0.14 0.14 0.15 0.15 0.15 0.14 0.13 0.13 0.12 0.11 0.12 0.11 0.07 0.06 0.07 0.12 0.12 0.13 0.13
0.09 0.08 0.07 0.08 0.06 0.06 0.07 0.06 0.04 0.03 0.04 0.04 0.05 0.05 0.05 0.04 0.04 0.05 0.04 0.04 0.04 0.05 0.10 0.15 0.15 0.14 0.14 0.15 0.14 0.13 0.12 0.14 0.15 0.15 0.12 0.11 0.09 0.07 0.06 0.09 0.11 0.12 0.11
0.11 0.10 0.09 0.07 0.05 0.05 0.05 0.04 0.03 0.04 0.05 0.05 0.07 0.06 0.05 0.04 0.03 0.05 0.06 0.06 0.06 0.07 0.08 0.09 0.10 0.10 0.11 0.12 0.13 0.12 0.11 0.11 0.11 0.12 0.12 0.10 0.09 0.08 0.05 0.04 0.05 0.06 0.08
0.13 0.10 0.09 0.07 0.05 0.05 0.03 0.03 0.03 0.04 0.05 0.07 0.09 0.07 0.05 0.03 0.02 0.04 0.07 0.08 0.09 0.10 0.11 0.11 0.09 0.09 0.10 0.12 0.14 0.12 0.12 0.10 0.09 0.10 0.09 0.08 0.08 0.07 0.06 0.05 0.04 0.04 0.04
0.17 0.15 0.13 0.08 0.05 0.03 0.02 0.02 0.02 0.04 0.05 0.06 0.05 0.05 0.04 0.02 0.02 0.02 0.04 0.06 0.05 0.06 0.08 0.08 0.06 0.06 0.06 0.07 0.08 0.08 0.07 0.07 0.06 0.06 0.07 0.07 0.06 0.06 0.06 0.06 0.05 0.03 0.02
0.14 0.10 0.08 0.06 0.04 0.02 0.01 0.01 0.01 0.02 0.04 0.05 0.04 0.03 0.03 0.02 0.02 0.02 0.03 0.03 0.03 0.03 0.03 0.03 0.03 0.02 0.01 0.02 0.03 0.04 0.03 0.02 0.03 0.03 0.04 0.04 0.03 0.04 0.05 0.07 0.06 0.03 0.02
0.07 0.05 0.03 0.03 0.03 0.02 0.01 0.01 0.01 0.02 0.03 0.04 0.03 0.02 0.02 0.02 0.02 0.02 0.02 0.01 0.01 0.01 0.02 0.01 0.01 0.01 0.01 0.01 0.01 0.01 0.01 0.01 0.01 0.02 0.02 0.02 0.02 0.03 0.04 0.05 0.04 0.03 0.02
0.10 0.08 0.05 0.05 0.03 0.02 0.01 0.01 0.01 0.01 0.01 0.01 0.02 0.01 0.01 0.02 0.02 0.01 0.01 0.00 0.00 0.01 0.01 0.01 0.01 0.01 0.01 0.01 0.01 0.01 0.01 0.01 0.01 0.01 0.02 0.03 0.03 0.03 0.03 0.04 0.04 0.03 0.03
0.12 0.09 0.08 0.06 0.04 0.02 0.02 0.02 0.01 0.01 0.01 0.01 0.01 0.02 0.01 0.02 0.01 0.01 0.00 0.00 0.00 0.00 0.00 0.00 0.01 0.00 0.01 0.01 0.01 0.01 0.01 0.01 0.02 0.03 0.03 0.03 0.04 0.03 0.03 0.02 0.03 0.03 0.03
0.13 0.10 0.08 0.05 0.04 0.04 0.03 0.01 0.01 0.01 0.01 0.01 0.01 0.02 0.01 0.01 0.01 0.00 0.00 0.00 0.00 0.00 0.00 0.00 0.01 0.00 0.00 0.00 0.01 0.01 0.01 0.02 0.02 0.02 0.02 0.03 0.03 0.02 0.02 0.02 0.02 0.02 0.02
0.15 0.15 0.11 0.07 0.04 0.03 0.02 0.02 0.01 0.01 0.01 0.01 0.01 0.01 0.01 0.01 0.01 0.00 0.00 0.00 0.00 0.00 0.00 0.00 0.00 0.00 0.00 0.00 0.01 0.01 0.01 0.01 0.02 0.03 0.03 0.02 0.02 0.01 0.01 0.01 0.01 0.01 0.01
0.17 0.15 0.13 0.08 0.04 0.03 0.03 0.02 0.01 0.01 0.00 0.01 0.01 0.01 0.01 0.01 0.00 0.00 0.00 0.01 0.00 0.01 0.00 0.00 0.00 0.00 0.00 0.00 0.00 0.01 0.01 0.01 0.01 0.01 0.02 0.01 0.02 0.02 0.01 0.01 0.01 0.01 0.01
0.07 0.07 0.08 0.09 0.06 0.04 0.03 0.02 0.01 0.00 0.00 0.01 0.01 0.01 0.00 0.00 0.01 0.00 0.00 0.00 0.00 0.00 0.00 0.00 0.00 0.00 0.00 0.00 0.01 0.01 0.01 0.01 0.01 0.01 0.01 0.01 0.02 0.03 0.02 0.02 0.01 0.01 0.02
0.04 0.04 0.04 0.04 0.04 0.03 0.02 0.01 0.01 0.00 0.00 0.01 0.00 0.00 0.01 0.01 0.01 0.01 0.01 0.01 0.01 0.00 0.00 0.00 0.00 0.00 0.00 0.00 0.00 0.00 0.00 0.01 0.02 0.02 0.02 0.03 0.02 0.03 0.03 0.03 0.02 0.02 0.02
0.04 0.05 0.04 0.04 0.03 0.02 0.01 0.01 0.00 0.00 0.00 0.00 0.00 0.00 0.00 0.00 0.01 0.01 0.01 0.01 0.01 0.01 0.01 0.01 0.00 0.00 0.00 0.00 0.00 0.00 0.00 0.01 0.02 0.03 0.02 0.02 0.02 0.03 0.03 0.02 0.02 0.03 0.03
0.04 0.04 0.03 0.03 0.02 0.02 0.01 0.01 0.01 0.01 0.01 0.00 0.00 0.00 0.01 0.00 0.00 0.00 0.00 0.00 0.01 0.01 0.01 0.01 0.00 0.00 0.00 0.01 0.01 0.01 0.01 0.02 0.02 0.03 0.03 0.03 0.03 0.03 0.03 0.03 0.02 0.02 0.03
0.05 0.05 0.04 0.03 0.02 0.02 0.01 0.01 0.01 0.01 0.01 0.01 0.00 0.00 0.01 0.01 0.00 0.00 0.00 0.00 0.01 0.01 0.01 0.01 0.01 0.01 0.01 0.01 0.01 0.02 0.02 0.02 0.02 0.02 0.03 0.02 0.02 0.02 0.03 0.03 0.03 0.02 0.02
0.04 0.05 0.05 0.04 0.03 0.02 0.01 0.01 0.01 0.01 0.01 0.01 0.01 0.01 0.01 0.01 0.01 0.00 0.00 0.01 0.01 0.02 0.02 0.02 0.01 0.02 0.02 0.02 0.02 0.03 0.02 0.02 0.03 0.03 0.02 0.02 0.01 0.01 0.02 0.01 0.02 0.03 0.04
0.03 0.03 0.04 0.05 0.04 0.03 0.02 0.01 0.01 0.01 0.00 0.00 0.00 0.00 0.00 0.00 0.00 0.00 0.01 0.01 0.02 0.03 0.03 0.02 0.02 0.03 0.03 0.04 0.04 0.03 0.02 0.03 0.03 0.03 0.02 0.02 0.02 0.02 0.02 0.02 0.03 0.03 0.03
0.03 0.03 0.03 0.03 0.03 0.03 0.02 0.02 0.01 0.01 0.00 0.00 0.00 0.00 0.00 0.00 0.00 0.01 0.02 0.02 0.03 0.02 0.02 0.02 0.02 0.02 0.02 0.03 0.03 0.03 0.02 0.03 0.02 0.02 0.01 0.02 0.02 0.02 0.02 0.02 0.02 0.02 0.02
0.03 0.03 0.03 0.03 0.02 0.03 0.03 0.02 0.01 0.01 0.00 0.00 0.00 0.00 0.01 0.01 0.01 0.01 0.02 0.03 0.03 0.02 0.02 0.02 0.03 0.03 0.02 0.02 0.03 0.03 0.03 0.03 0.02 0.01 0.02 0.02 0.02 0.02 0.01 0.02 0.02 0.02 0.02
0.03 0.02 0.02 0.02 0.02 0.02 0.02 0.02 0.02 0.01 0.01 0.01 0.01 0.01 0.01 0.01 0.01 0.01 0.02 0.03 0.02 0.02 0.01 0.01 0.02 0.02 0.02 0.02 0.03 0.04 0.04 0.04 0.03 0.03 0.02 0.02 0.02 0.02 0.02 0.03 0.03 0.02 0.01
0.02 0.02 0.03 0.03 0.03 0.02 0.02 0.02 0.02 0.01 0.01 0.01 0.01 0.01 0.01 0.01 0.01 0.01 0.02 0.02 0.01 0.01 0.01 0.01 0.01 0.02 0.02 0.02 0.03 0.03 0.04 0.04 0.04 0.04 0.03 0.02 0.02 0.02 0.02 0.03 0.03 0.02 0.02
0.01 0.01 0.02 0.03 0.03 0.03 0.02 0.01 0.01 0.01 0.00 0.00 0.00 0.01 0.01 0.01 0.01 0.01 0.02 0.02 0.01 0.00 0.00 0.01 0.01 0.02 0.01 0.01 0.02 0.02 0.03 0.03 0.04 0.03 0.03 0.02 0.02 0.02 0.02 0.02 0.01 0.01 0.01
MSLP
1012.58 1012.87 1013.19 1013.49 1013.75 1013.96 1014.13 1014.27 1014.43 1014.62 1014.85 1015.13 1015.43 1015.72 1015.97 1016.15 1016.27 1016.32 1016.33 1016.33 1016.36 1016.44 1016.59 1016.78 1017.01 1017.25 1017.46 1017.63 1017.74 1017.81 1017.85 1017.88 1017.94 1018.03 1018.14 1018.28 1018.42 1018.53 1018.60 1018.64 1018.65 1018.65 1018.68
1012.01 1012.32 1012.66 1012.99 1013.28 1013.53 1013.74 1013.94 1014.16 1014.43 1014.75 1015.10 1015.45 1015.78 1016.04 1016.20 1016.28 1016.28 1016.23 1016.18 1016.17 1016.23 1016.36 1016.55 1016.78 1017.02 1017.24 1017.40 1017.52 1017.59 1017.64 1017.71 1017.81 1017.95 1018.12 1018.30 1018.47 1018.60 1018.67 1018.67 1018.62 1018.55 1018.49
1011.45 1011.78 1012.14 1012.51 1012.84 1013.12 1013.38 1013.64 1013.92 1014.26 1014.64 1015.06 1015.47 1015.83 1016.11 1016.28 1016.34 1016.31 1016.24 1016.16 1016.12 1016.15 1016.25 1016.43 1016.64 1016.85 1017.03 1017.18 1017.28 1017.35 1017.42 1017.52 1017.67 1017.86 1018.09 1018.33 1018.54 1018.68 1018.74 1018.71 1018.61 1018.47 1018.35
1011.02 1011.35 1011.73 1012.12 1012.48 1012.80 1013.10 1013.40 1013.73 1014.11 1014.54 1015.00 1015.46 1015.86 1016.16 1016.36 1016.43 1016.41 1016.34 1016.26 1016.22 1016.23 1016.31 1016.44 1016.61 1016.77 1016.92 1017.02 1017.09 1017.16 1017.24 1017.37 1017.56 1017.81 1018.09 1018.38 1018.62 1018.77 1018.82 1018.76 1018.61 1018.42 1018.24
1010.78 1011.09 1011.48 1011.89 1012.26 1012.60 1012.91 1013.23 1013.58 1013.98 1014.43 1014.92 1015.40 1015.83 1016.17 1016.40 1016.52 1016.54 1016.51 1016.46 1016.43 1016.45 1016.51 1016.61 1016.73 1016.84 1016.92 1016.98 1017.02 1017.07 1017.15 1017.30 1017.52 1017.81 1018.13 1018.44 1018.69 1018.84 1018.87 1018.78 1018.60 1018.36 1018.14
1010.76 1011.04 1011.40 1011.80 1012.17 1012.50 1012.82 1013.13 1013.48 1013.88 1014.33 1014.82 1015.30 1015.75 1016.13 1016.41 1016.58 1016.67 1016.70 1016.71 1016.72 1016.76 1016.82 1016.90 1016.97 1017.03 1017.06 1017.07 1017.07 1017.10 1017.18 1017.34 1017.57 1017.87 1018.19 1018.50 1018.73 1018.86 1018.86 1018.73 1018.51 1018.25 1018.01
1010.92 1011.14 1011.47 1011.83 1012.17 1012.50 1012.80 1013.10 1013.44 1013.82 1014.26 1014.73 1015.21 1015.67 1016.07 1016.38 1016.61 1016.77 1016.87 1016.94 1017.01 1017.08 1017.16 1017.23 1017.29 1017.31 1017.30 1017.28 1017.25 1017.26 1017.33 1017.48 1017.70 1017.97 1018.27 1018.54 1018.72 1018.80 1018.74 1018.56 1018.31 1018.04 1017.80
1011.22 1011.37 1011.63 1011.94 1012.25 1012.55 1012.84 1013.13 1013.46 1013.83 1014.25 1014.71 1015.17 1015.62 1016.02 1016.36 1016.62 1016.83 1016.99 1017.12 1017.24 1017.36 1017.47 1017.55 1017.61 1017.62 1017.60 1017.56 1017.52 1017.52 1017.57 1017.70 1017.88 1018.11 1018.34 1018.53 1018.64 1018.63 1018.49 1018.26 1017.98 1017.70 1017.50
1011.63 1011.68 1011.86 1012.09 1012.36 1012.64 1012.92 1013.22 1013.56 1013.93 1014.35 1014.79 1015.23 1015.65 1016.04 1016.36 1016.63 1016.86 1017.05 1017.22 1017.39 1017.54 1017.68 1017.80 1017.88 1017.91 1017.90 1017.87 1017.84 1017.84 1017.88 1017.97 1018.10 1018.26 1018.40 1018.48 1018.48 1018.36 1018.14 1017.85 1017.54 1017.27 1017.11
1012.11 1012.05 1012.12 1012.27 1012.48 1012.73 1013.02 1013.35 1013.72 1014.13 1014.56 1015.00 1015.42 1015.81 1016.15 1016.43 1016.67 1016.87 1017.06 1017.24 1017.43 1017.61 1017.79 1017.94 1018.06 1018.14 1018.17 1018.18 1018.17 1018.18 1018.21 1018.27 1018.34 1018.41 1018.45 1018.41 1018.28 1018.05 1017.74 1017.39 1017.06 1016.80 1016.70
1012.66 1012.46 1012.40 1012.45 1012.59 1012.82 1013.13 1013.50 1013.93 1014.39 1014.86 1015.32 1015.73 1016.08 1016.36 1016.58 1016.75 1016.90 1017.04 1017.20 1017.39 1017.59 1017.80 1018.00 1018.17 1018.30 1018.40 1018.45 1018.49 1018.52 1018.55 1018.58 1018.60 1018.59 1018.51 1018.36 1018.11 1017.77 1017.38 1016.98 1016.63 1016.40 1016.36
1013.26 1012.91 1012.70 1012.63 1012.69 1012.89 1013.21 1013.64 1014.14 1014.68 1015.21 1015.70 1016.11 1016.43 1016.66 1016.80 1016.89 1016.96 1017.04 1017.16 1017.32 1017.52 1017.76 1018.00 1018.23 1018.43 1018.59 1018.71 1018.80 1018.86 1018.90 1018.91 1018.88 1018.79 1018.63 1018.38 1018.03 1017.62 1017.16 1016.73 1016.38 1016.19 1016.20
1013.89 1013.38 1013.00 1012.78 1012.74 1012.90 1013.23 1013.70 1014.29 1014.91 1015.52 1016.06 1016.50 1016.80 1016.98 1017.06 1017.07 1017.06 1017.07 1017.14 1017.27 1017.47 1017.72 1018.01 1018.29 1018.56 1018.79 1018.97 1019.10 1019.20 1019.25 1019.24 1019.19 1019.05 1018.83 1018.52 1018.12 1017.65 1017.17 1016.73 1016.40 1016.24 1016.30
1014.52 1013.83 1013.27 1012.89 1012.74 1012.83 1013.15 1013.66 1014.32 1015.03 1015.72 1016.33 1016.80 1017.11 1017.27 1017.30 1017.26 1017.19 1017.15 1017.17 1017.29 1017.49 1017.76 1018.08 1018.41 1018.73 1019.01 1019.24 1019.41 1019.53 1019.60 1019.60 1019.53 1019.37 1019.13 1018.80 1018.38 1017.92 1017.44 1017.03 1016.72 1016.60 1016.70
1015.08 1014.23 1013.48 1012.94 1012.66 1012.67 1012.96 1013.50 1014.20 1014.99 1015.76 1016.44 1016.96 1017.31 1017.48 1017.50 1017.43 1017.34 1017.28 1017.28 1017.39 1017.60 1017.89 1018.24 1018.60 1018.95 1019.27 1019.53 1019.73 1019.87 1019.94 1019.95 1019.89 1019.75 1019.52 1019.21 1018.83 1018.41 1017.99 1017.61 1017.36 1017.27 1017.39
1015.54 1014.53 1013.62 1012.93 1012.52 1012.45 1012.69 1013.23 1013.97 1014.81 1015.65 1016.39 1016.98 1017.37 1017.58 1017.63 1017.58 1017.50 1017.44 1017.47 1017.59 1017.81 1018.12 1018.48 1018.86 1019.23 1019.56 1019.82 1020.03 1020.17 1020.26 1020.28 1020.25 1020.14 1019.97 1019.73 1019.42 1019.08 1018.74 1018.44 1018.24 1018.18 1018.30
1015.85 1014.73 1013.70 1012.89 1012.38 1012.22 1012.42 1012.93 1013.68 1014.55 1015.43 1016.23 1016.88 1017.33 1017.59 1017.70 1017.70 1017.66 1017.65 1017.71 1017.86 1018.10 1018.43 1018.80 1019.18 1019.54 1019.85 1020.11 1020.31 1020.44 1020.53 1020.58 1020.58 1020.53 1020.43 1020.28 1020.08 1019.85 1019.61 1019.39 1019.25 1019.22 1019.33
1016.03 1014.86 1013.76 1012.88 1012.30 1012.08 1012.24 1012.72 1013.45 1014.32 1015.23 1016.06 1016.75 1017.26 1017.58 1017.75 1017.82 1017.85 1017.89 1018.00 1018.18 1018.45 1018.78 1019.15 1019.52 1019.85 1020.14 1020.36 1020.54 1020.66 1020.75 1020.82 1020.86 1020.88 1020.87 1020.83 1020.75 1020.63 1020.50 1020.37 1020.29 1020.27 1020.36
1016.12 1014.96 1013.88 1012.99 1012.39 1012.15 1012.27 1012.71 1013.42 1014.27 1015.16 1016.00 1016.71 1017.25 1017.63 1017.86 1017.99 1018.08 1018.18 1018.33 1018.55 1018.83 1019.16 1019.50 1019.84 1020.14 1020.39 1020.58 1020.73 1020.84 1020.93 1021.01 1021.10 1021.19 1021.27 1021.32 1021.35 1021.35 1021.32 1021.27 1021.23 1021.23 1021.29
1016.20 1015.13 1014.12 1013.29 1012.73 1012.50 1012.60 1013.02 1013.68 1014.48 1015.33 1016.14 1016.84 1017.40 1017.80 1018.07 1018.24 1018.38 1018.52 1018.70 1018.93 1019.21 1019.52 1019.84 1020.14 1020.40 1020.61 1020.77 1020.89 1020.99 1021.09 1021.19 1021.32 1021.46 1021.61 1021.75 1021.87 1021.96 1022.00 1022.01 1022.01 1022.01 1022.04
1016.32 1015.41 1014.54 1013.83 1013.35 1013.16 1013.27 1013.66 1014.27 1015.00 1015.79 1016.54 1017.20 1017.73 1018.12 1018.40 1018.60 1018.76 1018.91 1019.10 1019.32 1019.58 1019.87 1020.16 1020.42 1020.64 1020.82 1020.96 1021.07 1021.16 1021.26 1021.39 1021.55 1021.73 1021.92 1022.12 1022.29 1022.43 1022.52 1022.57 1022.59 1022.58 1022.58
1016.54 1015.83 1015.15 1014.59 1014.23 1014.11 1014.24 1014.60 1015.14 1015.80 1016.50 1017.17 1017.76 1018.24 1018.60 1018.86 1019.05 1019.20 1019.35 1019.52 1019.72 1019.96 1020.21 1020.46 1020.69 1020.89 1021.05 1021.17 1021.28 1021.38 1021.49 1021.63 1021.80 1022.00 1022.22 1022.43 1022.62 1022.78 1022.88 1022.94 1022.96 1022.94 1022.91
1016.85 1016.36 1015.89 1015.51 1015.28 1015.24 1015.39 1015.72 1016.20 1016.77 1017.37 1017.94 1018.44 1018.85 1019.16 1019.39 1019.55 1019.68 1019.81 1019.95 1020.12 1020.32 1020.54 1020.76 1020.96 1021.14 1021.30 1021.43 1021.55 1021.66 1021.79 1021.93 1022.10 1022.30 1022.50 1022.69 1022.87 1023.01 1023.10 1023.14 1023.14 1023.10 1023.05
1017.22 1016.95 1016.68 1016.48 1016.37 1016.40 1016.57 1016.87 1017.29 1017.76 1018.26 1018.73 1019.15 1019.48 1019.74 1019.92 1020.06 1020.16 1020.26 1020.38 1020.52 1020.68 1020.87 1021.06 1021.25 1021.43 1021.59 1021.73 1021.87 1021.99 1022.13 1022.27 1022.43 1022.59 1022.76 1022.91 1023.03 1023.13 1023.18 1023.19 1023.16 1023.11 1023.05
1017.59 1017.51 1017.42 1017.36 1017.36 1017.44 1017.62 1017.89 1018.24 1018.63 1019.03 1019.41 1019.75 1020.02 1020.24 1020.39 1020.51 1020.59 1020.68 1020.78 1020.89 1021.03 1021.20 1021.37 1021.55 1021.73 1021.90 1022.06 1022.21 1022.35 1022.48 1022.61 1022.74 1022.86 1022.96 1023.05 1023.11 1023.14 1023.14 1023.11 1023.07 1023.00 1022.94
1017.90 1017.98 1018.03 1018.07 1018.14 1018.26 1018.43 1018.66 1018.93 1019.24 1019.57 1019.88 1020.16 1020.40 1020.60 1020.75 1020.86 1020.95 1021.04 1021.13 1021.24 1021.37 1021.52 1021.68 1021.86 1022.04 1022.21 1022.37 1022.53 1022.67 1022.79 1022.89 1022.98 1023.04 1023.08 1023.09 1023.08 1023.05 1023.00 1022.94 1022.87 1022.81 1022.76
Thickness
5722 5722 5721 5720 5718 5716 5714 5712 5710 5708 5706 5705 5703 5701 5699 5698 5696 5694 5692 5691 5689 5689 5688 5688 5687 5687 5687 5686 5686 5687 5687 5687 5688 5686 5685 5687 5690 5691 5692 5692 5692 5691 5691
5712 5714 5714 5713 5710 5709 5708 5706 5704 5702 5702 5700 5698 5696 5695 5692 5690 5687 5685 5685 5683 5683 5683 5682 5681 5682 5682 5681 5681 5681 5680 5681 5682 5680 5676 5675 5678 5682 5685 5685 5685 5685 5685
5710 5709 5708 5706 5704 5702 5701 5700 5698 5697 5696 5695 5693 5690 5687 5685 5682 5680 5679 5678 5678 5677 5677 5676 5676 5677 5677 5676 5675 5675 5675 5674 5676 5677 5673 5669 5668 5671 5675 5676 5678 5678 5677
5709 5707 5704 5701 5699 5697 5695 5693 5692 5690 5690 5688 5686 5683 5678 5674 5674 5673 5673 5673 5672 5672 5671 5670 5670 5670 5670 5671 5670 5670 5670 5669 5669 5670 5671 5670 5669 5665 5665 5666 5668 5670 5670
5706 5703 5700 5697 5694 5692 5689 5687 5685 5683 5682 5681 5679 5675 5672 5670 5668 5668 5667 5666 5666 5666 5665 5664 5663 5663 5664 5664 5664 5664 5664 5664 5664 5664 5664 5664 5664 5664 5661 5659 5659 5660 5661
5702 5697 5694 5691 5687 5685 5682 5680 5677 5675 5674 5672 5670 5668 5665 5663 5661 5659 5658 5658 5658 5658 5658 5657 5656 5657 5658 5658 5658 5658 5658 5658 5659 5658 5659 5658 5658 5657 5656 5654 5653 5652 5652
5696 5692 5686 5683 5680 5678 5675 5672 5670 5667 5666 5664 5662 5660 5658 5656 5654 5652 5650 5649 5649 5649 5650 5651 5650 5650 5650 5652 5652 5651 5652 5653 5653 5653 5653 5653 5654 5654 5653 5650 5648 5646 5645
5689 5686 5682 5677 5674 5671 5668 5665 5662 5659 5657 5656 5653 5652 5650 5648 5646 5645 5643 5643 5642 5642 5643 5643 5643 5643 5644 5645 5645 5645 5646 5646 5647 5647 5647 5647 5648 5649 5648 5646 5643 5639 5638
5681 5679 5675 5670 5667 5663 5661 5658 5654 5651 5649 5648 5645 5643 5641 5639 5638 5637 5636 5635 5635 5636 5636 5636 5636 5636 5637 5638 5638 5638 5638 5639 5639 5640 5640 5641 5642 5642 5642 5642 5641 5637 5633
5672 5669 5667 5663 5659 5656 5653 5650 5647 5644 5642 5640 5638 5636 5633 5631 5630 5629 5627 5627 5627 5628 5628 5629 5629 5629 5630 5630 5630 5630 5630 5631 5632 5632 5633 5633 5634 5635 5635 5635 5635 5634 5632
5665 5660 5657 5655 5651 5648 5645 5642 5638 5635 5633 5631 5629 5626 5624 5623 5622 5620 5620 5620 5620 5620 5621 5621 5621 5621 5622 5622 5622 5622 5623 5623 5623 5624 5625 5626 5627 5627 5628 5628 5627 5626 5626
5659 5655 5651 5647 5643 5640 5636 5633 5630 5627 5625 5623 5620 5618 5616 5614 5613 5612 5612 5612 5612 5613 5613 5613 5613 5613 5614 5614 5614 5614 5615 5615 5615 5615 5617 5618 5619 5620 5620 5620 5620 5619 5619
5650 5646 5643 5639 5636 5632 5629 5625 5621 5618 5617 5614 5611 5609 5607 5605 5604 5603 5603 5603 5604 5604 5605 5605 5605 5605 5605 5606 5607 5607 5607 5607 5607 5607 5608 5609 5611 5611 5612 5612 5612 5612 5612
5642 5637 5634 5630 5628 5624 5621 5617 5613 5611 5608 5605 5602 5600 5598 5597 5596 5595 5595 5595 5595 5596 5596 5596 5597 5597 5597 5598 5599 5599 5599 5599 5599 5599 5600 5601 5603 5604 5605 5605 5604 5604 5603
5636 5632 5627 5624 5620 5617 5613 5609 5606 5602 5599 5596 5593 5591 5590 5589 5588 5587 5587 5587 5587 5588 5588 5588 5588 5589 5589 5589 5590 5591 5591 5591 5591 5592 5592 5593 5595 5597 5598 5598 5597 5597 5596
5630 5626 5622 5618 5614 5610 5606 5602 5598 5594 5591 5587 5585 5583 5582 5580 5579 5579 5579 5578 5579 5579 5579 5579 5580 5580 5581 5582 5583 5583 5583 5583 5583 5583 5584 5586 5587 5589 5590 5590 5591 5591 5591
5624 5620 5616 5612 5608 5603 5599 5594 5590 5587 5583 5580 5578 5576 5574 5572 5571 5571 5570 5569 5569 5569 5570 5570 5571 5572 5573 5574 5576 5576 5576 5575 5575 5576 5577 5579 5579 5580 5581 5582 5583 5584 5584
5618 5613 5609 5604 5600 5596 5592 5588 5584 5580 5576 5573 5570 5569 5567 5565 5564 5562 5561 5561 5561 5561 5561 5562 5563 5564 5565 5567 5568 5569 5569 5569 5569 5569 5570 5571 5572 5573 5574 5574 5575 5575 5576
5612 5607 5602 5597 5593 5589 5586 5582 5577 5574 5570 5567 5564 5562 5560 5558 5557 5555 5555 5554 5553 5553 5553 5554 5555 5557 5558 5560 5562 5563 5563 5562 5562 5563 5564 5565 5565 5566 5568 5568 5568 5568 5569
5606 5600 5595 5590 5586 5583 5580 5575 5570 5567 5563 5561 5558 5557 5555 5552 5551 5549 5549 5548 5547 5547 5547 5548 5549 5551 5552 5554 5556 5557 5557 5556 5556 5557 5558 5560 5560 5561 5562 5563 5563 5563 5563
5598 5594 5589 5583 5580 5577 5573 5568 5564 5560 5558 5556 5553 5551 5549 5547 5545 5544 5543 5543 5542 5542 5542 5542 5543 5545 5547 5548 5550 5551 5552 5552 5552 5552 5553 5555 5557 5558 5559 5559 5560 5560 5561
5591 5587 5582 5577 5574 5571 5567 5563 5558 5556 5554 5551 5548 5546 5544 5543 5541 5539 5538 5538 5537 5537 5537 5537 5538 5540 5542 5544 5545 5547 5548 5548 5549 5549 5550 5552 5554 5555 5556 5556 5557 5558 5558
5586 5582 5578 5573 5569 5566 5563 5559 5555 5553 5550 5546 5543 5541 5540 5539 5538 5536 5534 5533 5533 5532 5532 5533 5533 5534 5537 5540 5541 5543 5544 5545 5546 5547 5549 5550 5551 5552 5553 5554 5555 5556 5556
5582 5578 5574 5570 5566 5563 5560 5556 5553 5550 5546 5542 5540 5538 5536 5535 5534 5532 5531 5530 5530 5530 5530 5530 5530 5531 5533 5535 5537 5539 5540 5542 5543 5545 5547 5548 5550 5551 5552 5552 5553 5555 5555
5579 5575 5571 5567 5564 5561 5558 5555 5551 5548 5543 5540 5537 5535 5533 5532 5530 5529 5528 5528 5528 5528 5528 5528 5529 5529 5531 5533 5535 5536 5537 5539 5541 5542 5544 5545 5546 5548 5549 5551 5552 5554 5555
5578 5574 5570 5566 5563 5560 5556 5553 5550 5547 5542 5538 5536 5533 5531 5530 5528 5527 5526 5527 5528 5529 5529 5529 5530 5531 5533 5534 5535 5536 5538 5540 5541 5542 5542 5543 5545 5547 5549 5550 5552 5554 5556